Weather reports worldwide

Advertisment
Alajar, Spain (8380): temperature & dewpoint: 01.08.2020 03:00:00 - 07.08.2020 03:00:00 (CEST)Alajar, Spain (8380): wind speed & gusts: 01.08.2020 03:00:00 - 07.08.2020 03:00:00 (CEST)Alajar, Spain (8380): wind direction: 01.08.2020 03:00:00 - 07.08.2020 03:00:00 (CEST)Alajar, Spain (8380): reduced air pressure: 01.08.2020 03:00:00 - 07.08.2020 03:00:00 (CEST)Alajar, Spain (8380): visibility: 01.08.2020 03:00:00 - 07.08.2020 03:00:00 (CEST)Alajar, Spain (8380): sunshine duration: 01.08.2020 03:00:00 - 07.08.2020 03:00:00 (CEST)Alajar, Spain (8380): precipitation: 01.08.2020 03:00:00 - 07.08.2020 03:00:00 (CEST)
Date & Time tt [°C] td [°C] ff [km/h] ff [kn] fx [km/h] fx [kn] dd ppp [hPa] vv [km] sd [min] rr [mm]
07.08.2020 03:00:00 - - - - - - - - - - -
07.08.2020 02:00:00 23,3 12,6 5 3 11 6 WNW 1015,0 20 0 -
07.08.2020 01:00:00 24,4 13,3 8 4 18 10 WNW 1014,2 20 0 0,0
07.08.2020 00:00:00 25,4 13,6 7 4 18 10 WNW 1013,9 20 0 0,0
06.08.2020 23:00:00 26,6 14,0 10 5 19 11 W 1013,2 20 0 0,0
06.08.2020 22:00:00 28,4 14,2 6 4 18 10 W 1011,4 20 0 0,0
06.08.2020 21:00:00 31,5 14,6 8 5 23 13 WSW 1010,1 20 4 0,0
06.08.2020 20:00:00 34,7 13,0 12 6 23 12 SW 1008,7 20 19 -
06.08.2020 19:00:00 36,3 11,9 11 6 23 13 S 1008,3 20 60 0,0
06.08.2020 18:00:00 37,1 11,9 9 5 25 13 SSW 1008,3 20 60 0,0
06.08.2020 17:00:00 37,0 11,8 12 6 31 17 S 1008,5 20 60 0,0
06.08.2020 16:00:00 36,9 10,3 13 7 31 17 S 1008,9 20 60 0,0
06.08.2020 15:00:00 36,8 11,6 11 6 33 18 SSW 1009,1 20 60 0,0
06.08.2020 14:00:00 35,6 11,9 14 8 34 18 S 1009,3 20 60 -
06.08.2020 13:00:00 34,0 13,5 9 5 34 18 SSE 1009,8 20 60 0,0
06.08.2020 12:00:00 32,1 13,8 8 4 22 12 SSW 1010,2 20 60 0,0
06.08.2020 11:00:00 29,4 13,2 5 3 11 6 S 1010,9 20 60 0,0
06.08.2020 10:00:00 27,5 13,5 6 3 11 6 SW 1011,1 20 60 0,0
06.08.2020 09:00:00 23,6 14,9 4 2 9 5 NE 1011,5 20 50 0,0
06.08.2020 08:00:00 21,6 13,8 2 1 10 5 NE 1011,5 20 0 -
06.08.2020 07:00:00 22,3 13,7 4 2 8 5 WNW 1010,8 20 0 0,0
06.08.2020 06:00:00 22,0 13,7 3 2 8 4 NNW 1010,7 20 0 0,0
06.08.2020 05:00:00 22,2 13,6 5 3 10 5 NE 1010,6 20 0 0,0
06.08.2020 04:00:00 22,5 14,0 6 4 10 5 NE 1011,0 20 0 0,0
06.08.2020 03:00:00 23,5 13,7 5 3 8 4 NE 1010,7 20 0 0,0
06.08.2020 02:00:00 25,4 14,2 5 3 21 12 ESE 1010,0 20 0 -
06.08.2020 01:00:00 26,8 13,6 8 4 29 16 E 1009,7 20 0 0,0
06.08.2020 00:00:00 26,4 14,5 3 1 13 7 ENE 1009,7 20 0 0,0
05.08.2020 23:00:00 27,3 15,3 8 4 16 8 NW 1009,7 20 0 0,0
05.08.2020 22:00:00 29,2 15,3 5 3 24 13 WNW 1008,9 20 0 0,0
05.08.2020 21:00:00 31,8 15,3 11 6 29 16 SW 1007,7 20 8 0,0
05.08.2020 20:00:00 35,0 10,0 8 4 24 13 S 1006,3 20 21 -
05.08.2020 19:00:00 36,1 9,6 9 5 26 14 S 1006,2 20 60 0,0
05.08.2020 18:00:00 36,0 10,3 18 10 28 15 S 1006,4 20 58 0,0
05.08.2020 17:00:00 36,9 11,7 8 5 28 15 S 1006,5 20 49 0,0
05.08.2020 16:00:00 35,5 11,8 8 5 25 14 S 1007,1 20 31 0,0
05.08.2020 15:00:00 34,6 13,9 10 5 29 16 SSE 1007,4 20 45 0,0
05.08.2020 14:00:00 34,5 14,9 7 4 24 13 SSW 1008,2 20 60 -
05.08.2020 13:00:00 32,5 15,5 11 6 21 11 S 1009,2 20 60 0,0
05.08.2020 12:00:00 31,2 16,0 9 5 23 12 SSW 1009,7 20 60 0,0
05.08.2020 11:00:00 28,8 15,3 5 3 12 7 SSW 1010,2 20 60 0,0
05.08.2020 10:00:00 26,9 15,3 5 3 11 6 WSW 1010,6 20 60 0,0
05.08.2020 09:00:00 22,8 14,9 4 2 9 5 ENE 1011,3 20 50 0,0
05.08.2020 08:00:00 20,9 13,4 5 3 11 6 NE 1011,5 20 0 -
05.08.2020 07:00:00 21,4 12,2 8 4 11 6 ENE 1011,1 20 0 0,0
05.08.2020 06:00:00 22,1 12,6 6 4 10 5 NE 1010,5 20 0 0,0
05.08.2020 05:00:00 22,9 13,7 2 1 8 4 SSE 1010,4 20 0 0,0
05.08.2020 04:00:00 23,2 13,9 4 2 31 17 NNW 1010,5 20 0 0,0
05.08.2020 03:00:00 26,5 13,9 26 14 39 21 NNE 1009,8 20 0 0,0
05.08.2020 02:00:00 26,0 13,9 10 6 23 12 NNW 1010,5 20 0 -
05.08.2020 01:00:00 23,9 14,9 8 5 16 8 NW 1011,2 20 0 0,0
05.08.2020 00:00:00 24,0 15,0 2 1 6 3 W 1011,3 20 0 0,0
04.08.2020 23:00:00 25,4 15,2 4 2 9 5 N 1011,0 20 0 0,0
04.08.2020 22:00:00 27,1 15,4 5 3 15 8 NW 1010,3 20 0 0,0
04.08.2020 21:00:00 29,8 15,2 9 5 22 12 WSW 1009,0 20 5 0,0
04.08.2020 20:00:00 32,2 15,7 10 6 21 11 SW 1008,3 20 20 -
04.08.2020 19:00:00 33,0 15,5 11 6 26 14 WSW 1008,2 20 60 0,0
04.08.2020 18:00:00 34,0 15,4 13 7 31 17 SW 1008,4 20 47 0,0
04.08.2020 17:00:00 34,7 15,1 16 9 29 16 SW 1008,4 20 60 0,0
04.08.2020 16:00:00 34,9 14,7 16 9 29 16 SSW 1008,6 20 60 0,0
04.08.2020 15:00:00 34,3 15,3 13 7 26 14 SSW 1009,3 20 60 0,0
04.08.2020 14:00:00 32,6 14,7 10 6 23 12 S 1010,3 20 60 -
04.08.2020 13:00:00 31,9 13,7 9 5 22 12 SW 1010,8 20 60 0,0
04.08.2020 12:00:00 30,1 12,5 10 5 20 11 SW 1011,1 20 60 0,0
04.08.2020 11:00:00 28,9 12,3 8 4 14 8 SSW 1011,0 20 60 0,0
04.08.2020 10:00:00 26,8 12,4 6 3 11 6 S 1011,1 20 60 0,0
04.08.2020 09:00:00 23,1 12,1 2 1 6 3 SSW 1011,6 20 51 0,0
04.08.2020 08:00:00 22,0 11,4 2 1 15 8 W 1011,6 20 0 -
04.08.2020 07:00:00 23,3 11,3 13 7 42 23 NNE 1011,1 20 0 0,0
04.08.2020 06:00:00 23,0 12,3 30 16 50 27 NNE 1010,7 20 0 0,0
04.08.2020 05:00:00 22,7 13,2 35 19 49 27 NNE 1010,9 20 0 0,0
04.08.2020 04:00:00 22,6 13,4 32 17 53 29 NNE 1011,3 20 0 0,0
04.08.2020 03:00:00 22,6 13,7 39 21 55 30 NNE 1011,6 20 0 0,0
04.08.2020 02:00:00 22,5 14,0 41 22 59 32 NNE 1012,0 20 0 -
04.08.2020 01:00:00 23,8 13,7 34 18 49 26 NNE 1012,2 20 0 0,0
04.08.2020 00:00:00 25,1 13,0 30 16 55 30 N 1011,9 20 0 0,0
03.08.2020 23:00:00 26,8 10,9 26 14 39 21 N 1011,4 20 0 0,0
03.08.2020 22:00:00 27,9 9,2 16 8 25 13 N 1010,8 20 0 0,0
03.08.2020 21:00:00 29,8 9,3 9 5 23 12 N 1009,9 20 2 0,0
03.08.2020 20:00:00 31,7 9,8 8 5 23 12 N 1009,6 20 20 -
03.08.2020 19:00:00 31,8 9,3 9 5 25 14 NNE 1009,7 20 60 0,0
03.08.2020 18:00:00 31,6 9,2 13 7 33 18 N 1010,1 20 60 0,0
03.08.2020 17:00:00 30,8 9,7 16 9 36 19 N 1010,9 20 60 0,0
03.08.2020 16:00:00 30,1 9,0 16 8 41 22 N 1011,7 20 60 0,0
03.08.2020 15:00:00 28,4 9,7 19 10 36 19 N 1012,6 20 60 0,0
03.08.2020 14:00:00 27,5 9,3 16 8 36 19 NNW 1013,4 20 60 -
03.08.2020 13:00:00 25,9 9,3 15 8 37 20 NNE 1014,0 20 60 0,0
03.08.2020 12:00:00 24,4 9,6 16 8 41 22 N 1014,1 20 60 0,0
03.08.2020 11:00:00 23,5 8,4 24 13 41 22 NNE 1014,2 20 60 0,0
03.08.2020 10:00:00 20,8 9,0 31 17 50 27 NNE 1014,9 20 60 0,0
03.08.2020 09:00:00 18,2 9,0 29 16 46 25 NNE 1015,0 20 47 0,0
03.08.2020 08:00:00 17,0 8,4 25 14 41 22 NNE 1015,0 20 0 -
03.08.2020 07:00:00 16,9 8,8 21 11 43 23 NNE 1015,4 20 0 0,0
03.08.2020 06:00:00 17,9 8,8 31 17 55 30 NNE 1014,7 20 0 0,0
03.08.2020 05:00:00 19,4 7,8 41 22 67 36 NNE 1014,3 20 0 0,0
03.08.2020 04:00:00 18,7 9,7 36 19 58 31 N 1014,5 20 0 0,0
03.08.2020 03:00:00 20,5 9,4 14 8 49 26 NNE 1014,5 20 0 0,0
03.08.2020 02:00:00 20,6 8,9 35 19 56 30 NNE 1014,7 20 0 -
03.08.2020 01:00:00 22,4 8,9 13 7 44 24 N 1015,0 20 0 0,0
03.08.2020 00:00:00 24,0 9,2 19 10 48 26 N 1014,4 20 0 0,0
02.08.2020 23:00:00 25,9 10,9 24 13 45 24 N 1013,7 20 0 0,0
02.08.2020 22:00:00 27,3 4,3 4 2 11 6 NW 1013,4 20 0 0,0
02.08.2020 21:00:00 30,2 1,7 6 4 30 16 WNW 1012,5 20 6 0,0
02.08.2020 20:00:00 31,7 0,9 14 8 31 17 NNW 1012,2 20 20 -
02.08.2020 19:00:00 33,2 3,0 14 7 27 15 N 1011,8 20 60 0,0
02.08.2020 18:00:00 33,9 0,4 16 9 33 18 N 1012,0 20 60 0,0
02.08.2020 17:00:00 35,1 3,6 13 7 26 14 N 1012,0 20 60 0,0
02.08.2020 16:00:00 35,1 1,5 15 8 25 14 N 1012,6 20 60 0,0
02.08.2020 15:00:00 33,3 -3,9 11 6 26 14 NNW 1013,6 20 60 0,0
02.08.2020 14:00:00 32,3 -3,3 12 7 27 15 N 1014,4 20 60 -
02.08.2020 13:00:00 31,3 -5,4 13 7 24 13 NNW 1014,7 20 60 0,0
02.08.2020 12:00:00 29,9 -5,1 9 5 35 19 NW 1015,2 20 60 0,0
02.08.2020 11:00:00 27,7 -4,5 10 5 24 13 N 1015,3 20 60 0,0
02.08.2020 10:00:00 26,9 -6,0 9 5 59 32 WNW 1015,1 20 60 0,0
02.08.2020 09:00:00 23,4 -1,4 36 19 51 28 N 1015,1 20 43 0,0
02.08.2020 08:00:00 24,1 4,5 24 13 49 27 NNW 1014,9 20 0 -
02.08.2020 07:00:00 24,6 5,9 37 20 61 33 N 1014,3 20 0 0,0
02.08.2020 06:00:00 24,3 10,2 43 23 61 33 N 1014,3 20 0 0,0
02.08.2020 05:00:00 24,7 10,5 41 22 57 31 N 1014,3 20 0 0,0
02.08.2020 04:00:00 24,8 12,7 31 17 46 25 N 1014,7 20 0 0,0
02.08.2020 03:00:00 24,9 14,3 33 18 46 25 N 1015,5 20 0 0,0
02.08.2020 02:00:00 25,1 13,9 16 9 47 25 N 1016,2 20 0 -
02.08.2020 01:00:00 26,6 13,4 32 17 51 28 N 1016,0 20 0 0,0
02.08.2020 00:00:00 28,5 12,8 25 14 40 22 N 1015,6 20 0 0,0
01.08.2020 23:00:00 29,0 11,6 17 9 23 13 N 1015,5 20 0 0,0
01.08.2020 22:00:00 30,1 9,6 9 5 15 8 NNW 1014,6 20 0 0,0
01.08.2020 21:00:00 32,5 6,7 7 4 18 10 N 1014,0 20 1 0,0
01.08.2020 20:00:00 35,3 3,8 13 7 29 16 NNW 1013,1 20 19 -
01.08.2020 19:00:00 36,9 1,7 6 3 28 15 N 1013,0 20 60 0,0
01.08.2020 18:00:00 36,6 -1,4 16 9 28 15 NNW 1013,5 20 60 0,0
01.08.2020 17:00:00 36,8 -1,2 14 8 29 16 NNW 1013,5 20 60 0,0
01.08.2020 16:00:00 37,2 0,4 10 5 29 16 NNE 1013,9 20 60 0,0
01.08.2020 15:00:00 36,3 -5,1 14 8 29 16 NNW 1014,5 20 60 0,0
01.08.2020 14:00:00 34,9 -4,2 16 9 31 17 N 1015,2 20 60 -
01.08.2020 13:00:00 34,6 -0,3 11 6 27 15 NNW 1015,4 20 60 0,0
01.08.2020 12:00:00 32,7 -1,7 7 4 36 19 E 1015,8 20 60 0,0
01.08.2020 11:00:00 30,0 -1,4 26 14 40 21 NNE 1015,8 20 60 0,0
01.08.2020 10:00:00 29,3 3,2 6 3 29 16 NNE 1015,8 20 60 0,0
01.08.2020 09:00:00 27,3 -1,7 19 10 33 18 NNW 1016,1 20 45 0,0
01.08.2020 08:00:00 26,6 6,5 21 12 42 23 NNW 1015,8 20 0 -
01.08.2020 07:00:00 26,3 5,3 30 16 46 25 NNW 1015,5 20 0 0,0
01.08.2020 06:00:00 26,1 9,0 25 13 39 21 N 1015,1 20 0 0,0
01.08.2020 05:00:00 24,6 10,9 5 3 20 11 NW 1015,9 20 0 0,0
01.08.2020 04:00:00 24,2 11,6 5 3 10 5 NW 1016,1 20 0 0,0
01.08.2020 03:00:00 25,6 11,3 10 5 32 17 N 1016,0 20 0 0,0

tt = temperature
td = dewpoint
ff = wind speed
fx = gusts
dd = wind direction
ppp = reduced air pressure
vv = visibility
sd = sunshine duration
rr = precipitation

Next stations